When you browse on this site, cookies collect data to enhance your experience and personalize the content and advertising you see.
Visit our Privacy Policy to learn more. By continuing to use the site, you agree to this use of cookies and data.

Hourly Weather Bangalore

Today, 12 July, Sunday

Time Temperature Precipitation Wind Pressure Humidity
00:00 +24°C° 0.4 mm 3 mps 681 mmHg 82%
01:00 +24°C° 0.4 mm 3 mps 680 mmHg 83%
02:00 +24°C° 0.4 mm 3 mps 680 mmHg 84%
03:00 +24°C° 0 mm 3 mps 680 mmHg 85%
04:00 +24°C° 0 mm 2 mps 680 mmHg 86%
05:00 +22°C° 0 mm 3 mps 680 mmHg 84%
06:00 +23°C° 0 mm 4 mps 681 mmHg 83%
07:00 +23°C° 0 mm 4 mps 681 mmHg 82%
08:00 +25°C° 0 mm 5 mps 681 mmHg 82%
09:00 +26°C° 0.1 mm 5 mps 681 mmHg 77%
10:00 +27°C° 0.1 mm 5 mps 682 mmHg 73%
11:00 +29°C° 0 mm 5 mps 682 mmHg 67%
12:00 +29°C° 1.1 mm 5 mps 681 mmHg 65%
13:00 +30°C° 1.1 mm 5 mps 680 mmHg 62%
14:00 +30°C° 1.1 mm 6 mps 680 mmHg 60%
15:00 +30°C° 1.6 mm 5 mps 680 mmHg 61%
16:00 +29°C° 1.6 mm 5 mps 680 mmHg 63%
17:00 +29°C° 1.6 mm 5 mps 680 mmHg 65%
18:00 +28°C° 0.6 mm 5 mps 680 mmHg 69%
19:00 +27°C° 0.6 mm 5 mps 680 mmHg 73%
20:00 +26°C° 0.6 mm 5 mps 681 mmHg 77%
21:00 +25°C° 0 mm 5 mps 681 mmHg 79%
22:00 +25°C° 0 mm 5 mps 681 mmHg 81%
23:00 +23°C° 0 mm 4 mps 682 mmHg 83%

Tomorrow, 13 July, Monday

Time Temperature Precipitation Wind Pressure Humidity
00:00 +23°C° 0.1 mm 4 mps 681 mmHg 84%
01:00 +23°C° 0.1 mm 4 mps 680 mmHg 85%
02:00 +22°C° 0.1 mm 4 mps 680 mmHg 87%
03:00 +22°C° 0.3 mm 4 mps 680 mmHg 87%
04:00 +22°C° 0.3 mm 4 mps 680 mmHg 88%
05:00 +22°C° 0.3 mm 4 mps 679 mmHg 89%
06:00 +22°C° 0 mm 4 mps 680 mmHg 86%
07:00 +23°C° 0 mm 5 mps 680 mmHg 84%
08:00 +23°C° 0 mm 5 mps 681 mmHg 82%
09:00 +25°C° 0 mm 5 mps 681 mmHg 77%
10:00 +27°C° 0 mm 5 mps 681 mmHg 72%
11:00 +28°C° 0 mm 5 mps 681 mmHg 66%
12:00 +28°C° 0.3 mm 5 mps 681 mmHg 64%
13:00 +29°C° 0.3 mm 5 mps 680 mmHg 61%
14:00 +30°C° 0.3 mm 5 mps 680 mmHg 59%
15:00 +29°C° 0.7 mm 5 mps 679 mmHg 61%
16:00 +29°C° 0.7 mm 4 mps 679 mmHg 64%
17:00 +28°C° 0.7 mm 3 mps 679 mmHg 66%
18:00 +27°C° 1.2 mm 3 mps 680 mmHg 69%
19:00 +27°C° 1.2 mm 3 mps 680 mmHg 73%
20:00 +26°C° 1.2 mm 4 mps 680 mmHg 76%
21:00 +25°C° 0.9 mm 4 mps 681 mmHg 78%
22:00 +25°C° 0.9 mm 4 mps 681 mmHg 81%
23:00 +23°C° 0.9 mm 4 mps 681 mmHg 83%

Day after tomorrow, 14 July, Tuesday

Time Temperature Precipitation Wind Pressure Humidity
00:00 +23°C° 0 mm 4 mps 680 mmHg 84%
01:00 +24°C° 0 mm 3 mps 680 mmHg 85%
02:00 +24°C° 0 mm 3 mps 680 mmHg 86%
03:00 +24°C° 0 mm 3 mps 680 mmHg 86%
04:00 +22°C° 0 mm 3 mps 680 mmHg 87%
05:00 +22°C° 0 mm 3 mps 680 mmHg 87%
06:00 +24°C° 0 mm 3 mps 680 mmHg 86%
07:00 +23°C° 0 mm 4 mps 681 mmHg 84%
08:00 +23°C° 0 mm 4 mps 681 mmHg 82%
09:00 +25°C° 0 mm 5 mps 681 mmHg 77%
10:00 +26°C° 0 mm 5 mps 681 mmHg 72%
11:00 +28°C° 0 mm 5 mps 681 mmHg 67%
12:00 +28°C° 0.3 mm 6 mps 681 mmHg 66%
13:00 +28°C° 0.3 mm 6 mps 680 mmHg 64%
14:00 +28°C° 0.3 mm 6 mps 680 mmHg 63%
15:00 +28°C° 0.5 mm 5 mps 680 mmHg 66%
16:00 +27°C° 0.5 mm 5 mps 680 mmHg 68%
17:00 +27°C° 0.5 mm 4 mps 679 mmHg 71%
18:00 +26°C° 1.7 mm 5 mps 680 mmHg 76%
19:00 +25°C° 1.7 mm 5 mps 680 mmHg 82%
20:00 +23°C° 1.7 mm 5 mps 680 mmHg 87%
21:00 +22°C° 0.6 mm 5 mps 681 mmHg 88%
22:00 +22°C° 0.6 mm 5 mps 681 mmHg 88%
23:00 +22°C° 0.6 mm 4 mps 681 mmHg 89%

15 July, Wednesday

Time Temperature Precipitation Wind Pressure Humidity
00:00 +22°C° 0.2 mm 4 mps 680 mmHg 89%
01:00 +22°C° 0.2 mm 4 mps 680 mmHg 89%
02:00 +22°C° 0.2 mm 4 mps 679 mmHg 89%
03:00 +22°C° 0.2 mm 4 mps 679 mmHg 89%
04:00 +22°C° 0.2 mm 5 mps 679 mmHg 89%
05:00 +22°C° 0.2 mm 5 mps 679 mmHg 89%
06:00 +22°C° 0.1 mm 4 mps 679 mmHg 88%
07:00 +22°C° 0.1 mm 4 mps 680 mmHg 87%
08:00 +22°C° 0.1 mm 4 mps 680 mmHg 87%
09:00 +23°C° 0 mm 5 mps 680 mmHg 83%
10:00 +23°C° 0 mm 5 mps 680 mmHg 80%
11:00 +24°C° 0 mm 6 mps 680 mmHg 77%
12:00 +23°C° 0 mm 6 mps 680 mmHg 78%
13:00 +23°C° 0 mm 6 mps 679 mmHg 79%
14:00 +23°C° 0 mm 6 mps 679 mmHg 80%
15:00 +23°C° 0 mm 6 mps 679 mmHg 79%
16:00 +23°C° 0 mm 6 mps 679 mmHg 78%
17:00 +23°C° 0 mm 6 mps 678 mmHg 78%
18:00 +23°C° 0.1 mm 6 mps 679 mmHg 80%
19:00 +22°C° 0.1 mm 6 mps 679 mmHg 82%
20:00 +22°C° 0.1 mm 6 mps 680 mmHg 84%
21:00 +22°C° 0 mm 6 mps 680 mmHg 84%
22:00 +22°C° 0 mm 6 mps 680 mmHg 84%
23:00 +22°C° 0 mm 6 mps 680 mmHg 84%

16 July, Thursday

Time Temperature Precipitation Wind Pressure Humidity
00:00 +22°C° 0 mm 6 mps 679 mmHg 86%
01:00 +22°C° 0 mm 6 mps 679 mmHg 87%
02:00 +21°C° 0 mm 6 mps 678 mmHg 88%
03:00 +21°C° 0 mm 6 mps 678 mmHg 88%
04:00 +21°C° 0 mm 6 mps 678 mmHg 88%
05:00 +21°C° 0 mm 6 mps 678 mmHg 88%
06:00 +22°C° 0 mm 6 mps 679 mmHg 85%
07:00 +22°C° 0 mm 6 mps 679 mmHg 83%
08:00 +23°C° 0 mm 7 mps 680 mmHg 81%
09:00 +24°C° 0.1 mm 7 mps 680 mmHg 75%
10:00 +26°C° 0.1 mm 7 mps 680 mmHg 70%
11:00 +27°C° 0.1 mm 8 mps 680 mmHg 64%
12:00 +28°C° 0.1 mm 8 mps 679 mmHg 62%
13:00 +29°C° 0.1 mm 8 mps 679 mmHg 59%
14:00 +29°C° 0.1 mm 8 mps 679 mmHg 57%
15:00 +29°C° 0.4 mm 8 mps 678 mmHg 60%
16:00 +28°C° 0.4 mm 8 mps 678 mmHg 62%
17:00 +27°C° 0.4 mm 8 mps 678 mmHg 65%
18:00 +26°C° 0.3 mm 7 mps 678 mmHg 69%
19:00 +24°C° 0.3 mm 7 mps 679 mmHg 73%
20:00 +24°C° 0.3 mm 6 mps 679 mmHg 77%
21:00 +23°C° 0 mm 6 mps 679 mmHg 80%
22:00 +23°C° 0 mm 6 mps 679 mmHg 82%
23:00 +22°C° 0 mm 7 mps 679 mmHg 84%

17 July, Friday

Time Temperature Precipitation Wind Pressure Humidity
00:00 +22°C° 0 mm 6 mps 679 mmHg 85%
01:00 +22°C° 0 mm 6 mps 679 mmHg 85%
02:00 +22°C° 0 mm 6 mps 678 mmHg 86%
03:00 +22°C° 0 mm 6 mps 678 mmHg 87%
04:00 +21°C° 0 mm 6 mps 678 mmHg 87%
05:00 +21°C° 0 mm 6 mps 678 mmHg 88%
06:00 +22°C° 0 mm 6 mps 679 mmHg 85%
07:00 +23°C° 0 mm 7 mps 679 mmHg 82%
08:00 +23°C° 0 mm 7 mps 680 mmHg 78%
09:00 +24°C° 0 mm 7 mps 680 mmHg 74%
10:00 +27°C° 0 mm 8 mps 680 mmHg 69%
11:00 +28°C° 0 mm 8 mps 680 mmHg 64%
12:00 +28°C° 0.1 mm 8 mps 680 mmHg 62%
13:00 +29°C° 0.1 mm 8 mps 679 mmHg 60%
14:00 +29°C° 0.1 mm 7 mps 679 mmHg 59%
15:00 +29°C° 0.5 mm 7 mps 678 mmHg 61%
16:00 +28°C° 0.5 mm 7 mps 678 mmHg 64%
17:00 +28°C° 0.5 mm 7 mps 678 mmHg 66%
18:00 +27°C° 0.1 mm 6 mps 678 mmHg 70%
19:00 +26°C° 0.1 mm 5 mps 679 mmHg 74%
20:00 +25°C° 0.1 mm 5 mps 679 mmHg 78%
21:00 +25°C° 0 mm 5 mps 679 mmHg 80%
22:00 +23°C° 0 mm 5 mps 679 mmHg 82%
23:00 +23°C° 0 mm 5 mps 679 mmHg 85%
Show more